GPS IIF-2

operational
NORAD ID: 37753 Int'l Des: 2011-036 Owner: AFSMC Country: US Constellation: GPS
MEOGNSS

About GPS IIF-2

Description loading...

Live Position

Loading 3D Globe...

Upcoming Passes

Altitude History

Altitude vs Time

uPlot chart will show altitude changes over time

Two-Line Element Set

1 37753U 11036A 25298.03525167 -.00000078 00000-0 00000+0 0 9996
2 37753 56.6637 341.1672 0134641 60.7483 301.0485 2.00564954104563
Epoch: Oct 25, 2025 • Age: 12 hours

Current Status

Altitude 19992.9 km
Velocity 3.90 km/s
Sub-Earth Point 1.62°N, 115.13°E
Launch Date Jul 16, 2011
Age 14.2 years
Type navigation

Technical Details

Classification Payload
Mass 1630.00 kg
Dry Mass 1500.00 kg
Total Mass 1630.00 kg
Length 2.50 m
Diameter 1.80 m
Span 18.00 m
Shape Box + 2 Pan
Manufacturer BOES
Bus Type GPS IIF
Phase Status In Orbit
Owner/State AFSMC/US

Large Constellations

Loading constellations...